GW1550 Weather Reports


time (UTC)temp
F
wind
direction
speed
knots
gust
knots
rain 1hr
in
rain 24hr
in
rain mn
in
humidity
%
barometer
mb
20260906214701 89 105 0.0 1.7 0.00 0.00 0.00 32
20260906214156 89 160 0.0 0.9 0.00 0.00 0.00 31
20260906213656 89 166 0.0 0.9 0.00 0.00 0.00 32
20260906213150 89 149 0.9 1.7 0.00 0.00 0.00 32
20260906212648 90 106 0.9 0.9 0.00 0.00 0.00 32
20260906212144 90 121 0.9 0.9 0.00 0.00 0.00 32
20260906211643 89 139 0.0 0.0 0.00 0.00 0.00 32
20260906211138 89 105 0.0 0.9 0.00 0.00 0.00 32
20260906210634 90 134 0.9 1.7 0.00 0.00 0.00 30
20260906210134 90 136 0.0 0.9 0.00 0.00 0.00 31
20260906205629 90 128 0.0 0.9 0.00 0.00 0.00 32
20260906205126 90 347 0.0 0.9 0.00 0.00 0.00 32
20260906204625 90 155 0.0 0.9 0.00 0.00 0.00 32
20260906204119 91 110 0.9 0.9 0.00 0.00 0.00 32
20260906203614 89 117 0.9 0.9 0.00 0.00 0.00 33
20260906203108 89 105 0.0 0.9 0.00 0.00 0.00 31
20260906202600 90 136 0.0 0.9 0.00 0.00 0.00 30
20260906202059 89 96 0.0 0.9 0.00 0.00 0.00 31
20260906201554 88 83 0.0 0.9 0.00 0.00 0.00 33
20260906201053 89 142 0.9 0.9 0.00 0.00 0.00 31
20260906200550 90 101 0.9 0.9 0.00 0.00 0.00 32
20260906200045 89 274 0.0 0.9 0.00 0.00 0.00 33
20260906195540 89 105 0.9 1.7 0.00 0.00 0.00 33
20260906195037 89 137 0.0 0.9 0.00 0.00 0.00 31
20260906194532 89 82 0.0 0.9 0.00 0.00 0.00 32
20260906194028 88 85 0.0 0.9 0.00 0.00 0.00 33
20260906193527 89 151 0.0 0.9 0.00 0.00 0.00 32
20260906193023 88 151 0.9 0.9 0.00 0.00 0.00 33
20260906192518 87 113 0.0 0.9 0.00 0.00 0.00 33
20260906192017 87 114 0.9 0.9 0.00 0.00 0.00 34
20260906191513 89 132 0.0 0.9 0.00 0.00 0.00 32
20260906191012 88 111 0.0 1.7 0.00 0.00 0.00 34
20260906190511 87 142 0.0 0.9 0.00 0.00 0.00 34
20260906190007 87 165 0.0 1.7 0.00 0.00 0.00 33
20260906185505 87 197 0.0 0.9 0.00 0.00 0.00 33
20260906185004 87 150 0.0 0.9 0.00 0.00 0.00 34
20260906184459 87 94 0.9 0.9 0.00 0.00 0.00 34
20260906183955 87 120 0.9 1.7 0.00 0.00 0.00 34
20260906183451 86 149 0.9 0.9 0.00 0.00 0.00 35
20260906182946 86 104 0.9 1.7 0.00 0.00 0.00 35
20260906182442 86 152 0.0 0.9 0.00 0.00 0.00 35
20260906181937 86 12 0.0 0.9 0.00 0.00 0.00 35
20260906181433 85 92 0.0 0.9 0.00 0.00 0.00 35
20260906180928 86 149 0.9 0.9 0.00 0.00 0.00 34
20260906180423 85 131 0.0 0.9 0.00 0.00 0.00 35
20260906175921 85 115 0.0 0.9 0.00 0.00 0.00 36
20260906175416 84 100 0.0 0.9 0.00 0.00 0.00 38
20260906174915 85 146 0.0 0.9 0.00 0.00 0.00 35
20260906174414 83 207 0.0 0.9 0.00 0.00 0.00 38
20260906173909 84 167 0.0 0.9 0.00 0.00 0.00 37
20260906173405 83 94 0.0 0.9 0.00 0.00 0.00 38
20260906172904 84 138 0.9 0.9 0.00 0.00 0.00 37
20260906172401 84 153 0.0 0.9 0.00 0.00 0.00 37
20260906171855 84 122 0.0 0.9 0.00 0.00 0.00 36
20260906171350 83 99 0.0 0.9 0.00 0.00 0.00 37
20260906170845 82 99 0.0 0.9 0.00 0.00 0.00 39
20260906170342 82 121 0.9 0.9 0.00 0.00 0.00 39
20260906165837 82 120 0.0 0.0 0.00 0.00 0.00 39
20260906165336 82 144 0.0 0.9 0.00 0.00 0.00 38
20260906164832 81 309 0.0 0.9 0.00 0.00 0.00 39
20260906164331 82 73 0.0 0.9 0.00 0.00 0.00 40
20260906163827 82 5 0.0 0.0 0.00 0.00 0.00 39
20260906163323 81 103 0.0 0.9 0.00 0.00 0.00 41
20260906162820 80 109 0.0 0.9 0.00 0.00 0.00 41
20260906162320 79 53 0.0 0.9 0.00 0.00 0.00 43
20260906161815 80 69 0.0 0.0 0.00 0.00 0.00 40
20260906161314 80 97 0.0 0.9 0.00 0.00 0.00 42
20260906160813 78 129 0.0 0.9 0.00 0.00 0.00 43
20260906160308 78 159 0.0 0.9 0.00 0.00 0.00 43
20260906155805 79 78 0.0 0.9 0.00 0.00 0.00 42
20260906155300 78 106 0.0 0.9 0.00 0.00 0.00 43
20260906154756 78 147 0.0 0.9 0.00 0.00 0.00 43
20260906154250 77 134 0.0 0.9 0.00 0.00 0.00 44
20260906153749 77 140 0.9 0.9 0.00 0.00 0.00 44
20260906153243 77 196 0.0 0.9 0.00 0.00 0.00 45
20260906152738 78 137 0.0 0.9 0.00 0.00 0.00 45
20260906152233 78 113 0.0 0.9 0.00 0.00 0.00 44
20260906151732 78 144 0.0 0.0 0.00 0.00 0.00 46
20260906151228 78 135 0.0 0.0 0.00 0.00 0.00 44
20260906150724 79 260 0.0 0.0 0.00 0.00 0.00 45
20260906150219 79 146 0.0 0.0 0.00 0.00 0.00 43
20260906145718 79 265 0.0 0.0 0.00 0.00 0.00 44
20260906145217 78 289 0.0 0.0 0.00 0.00 0.00 45
20260906144712 76 202 0.0 0.0 0.00 0.00 0.00 47
20260906144207 76 271 0.0 0.0 0.00 0.00 0.00 48
20260906143706 76 230 0.0 0.0 0.00 0.00 0.00 47
20260906143204 75 0 0.0 0.0 0.00 0.00 0.00 49
20260906142703 74 293 0.0 0.0 0.00 0.00 0.00 51
20260906142159 74 129 0.0 0.0 0.00 0.00 0.00 52
20260906141657 73 206 0.0 0.0 0.00 0.00 0.00 52
20260906141152 73 89 0.0 0.0 0.00 0.00 0.00 53
20260906140652 73 165 0.0 0.0 0.00 0.00 0.00 53
20260906140147 72 113 0.0 0.0 0.00 0.00 0.00 55
20260906135643 71 162 0.0 0.0 0.00 0.00 0.00 57
20260906135140 70 175 0.0 0.0 0.00 0.00 0.00 56
20260906134635 70 129 0.0 0.0 0.00 0.00 0.00 58
20260906134130 69 197 0.0 0.0 0.00 0.00 0.00 58
20260906133626 72 148 0.0 0.0 0.00 0.00 0.00 53
20260906133121 70 56 0.0 0.0 0.00 0.00 0.00 58
20260906132616 68 355 0.0 0.0 0.00 0.00 0.00 60
20260906132111 67 326 0.0 0.0 0.00 0.00 0.00 62
20260906131606 66 3 0.0 0.0 0.00 0.00 0.00 62
20260906131102 65 57 0.0 0.0 0.00 0.00 0.00 64
20260906130556 64 322 0.0 0.0 0.00 0.00 0.00 66
20260906130051 63 43 0.0 0.0 0.00 0.00 0.00 68
20260906125548 63 345 0.0 0.0 0.00 0.00 0.00 69
20260906125049 63 350 0.0 0.0 0.00 0.00 0.00 69
20260906124544 62 0 0.0 0.0 0.00 0.00 0.00 70
20260906124039 62 7 0.0 0.0 0.00 0.00 0.00 70
20260906123538 62 38 0.0 0.0 0.00 0.00 0.00 70
20260906123033 62 9 0.0 0.0 0.00 0.00 0.00 69
20260906122527 63 347 0.0 0.0 0.00 0.00 0.00 69
20260906122024 62 342 0.0 0.0 0.00 0.00 0.00 70
20260906121519 62 1 0.0 0.0 0.00 0.00 0.00 71
20260906121015 62 347 0.0 0.0 0.00 0.00 0.00 72
20260906120510 61 357 0.0 0.0 0.00 0.00 0.00 72
20260906120008 61 139 0.0 0.0 0.00 0.00 0.00 71
20260906115502 62 343 0.0 0.0 0.00 0.00 0.00 70
20260906115002 62 354 0.0 0.0 0.00 0.00 0.00 69
20260906114456 62 329 0.0 0.0 0.00 0.00 0.00 68
20260906113953 63 27 0.0 0.0 0.00 0.00 0.00 67
20260906113451 63 29 0.0 0.0 0.00 0.00 0.00 65
20260906112947 64 341 0.0 0.0 0.00 0.00 0.00 64
20260906112442 64 316 0.0 0.0 0.00 0.00 0.00 64
20260906111938 63 313 0.0 0.0 0.00 0.00 0.00 65
20260906111437 63 316 0.0 0.0 0.00 0.00 0.00 65
20260906110932 63 298 0.0 0.0 0.00 0.00 0.00 66
20260906110427 63 315 0.0 0.0 0.00 0.00 0.00 67
20260906105926 63 316 0.0 0.0 0.00 0.00 0.00 68
20260906105422 63 318 0.0 0.0 0.00 0.00 0.00 68
20260906104918 63 335 0.0 0.0 0.00 0.00 0.00 68
20260906104416 64 311 0.0 0.0 0.00 0.00 0.00 68
20260906103916 64 314 0.0 0.0 0.00 0.00 0.00 69
20260906103414 64 278 0.0 0.0 0.00 0.00 0.00 70
20260906102910 64 352 0.0 0.0 0.00 0.00 0.00 69
20260906102409 65 319 0.0 0.0 0.00 0.00 0.00 68
20260906101904 66 350 0.0 0.0 0.00 0.00 0.00 68
20260906101359 67 16 0.0 0.0 0.00 0.00 0.00 67
20260906100855 68 338 0.0 0.0 0.00 0.00 0.00 65
20260906100354 69 126 0.0 0.0 0.00 0.00 0.00 65
20260906095849 69 133 0.0 0.0 0.00 0.00 0.00 65
20260906095344 68 126 0.0 0.0 0.00 0.00 0.00 65
20260906094844 68 112 0.0 0.0 0.00 0.00 0.00 65
20260906094339 68 107 0.0 0.0 0.00 0.00 0.00 66
20260906093835 68 99 0.0 0.0 0.00 0.00 0.00 64
20260906093331 68 137 0.0 0.0 0.00 0.00 0.00 63
20260906092826 68 120 0.0 0.0 0.00 0.00 0.00 61
20260906092325 66 130 0.0 0.9 0.00 0.00 0.00 63
20260906091821 65 135 0.0 0.0 0.00 0.00 0.00 62
20260906091317 65 89 0.0 0.0 0.00 0.00 0.00 60
20260906090814 65 29 0.0 0.0 0.00 0.00 0.00 60
20260906090312 65 58 0.0 0.0 0.00 0.00 0.00 60
20260906085812 65 50 0.0 0.0 0.00 0.00 0.00 61
20260906085307 65 81 0.0 0.0 0.00 0.00 0.00 61
20260906084800 65 24 0.0 0.0 0.00 0.00 0.00 60
20260906084300 65 49 0.0 0.0 0.00 0.00 0.00 59
20260906083755 66 129 0.0 0.0 0.00 0.00 0.00 59
20260906083251 66 129 0.0 0.0 0.00 0.00 0.00 59
20260906082745 66 44 0.0 0.0 0.00 0.00 0.00 58
20260906082240 66 66 0.0 0.0 0.00 0.00 0.00 58
20260906081736 67 50 0.0 0.0 0.00 0.00 0.00 56
20260906081231 68 30 0.0 0.0 0.00 0.00 0.00 55
20260906080727 69 0 0.0 0.0 0.00 0.00 0.00 54
20260906080224 70 3 0.0 0.0 0.00 0.00 0.00 52
20260906075717 71 308 0.0 0.0 0.00 0.00 0.00 49
20260906075212 72 291 0.0 0.9 0.00 0.00 0.00 49
20260906074707 71 286 0.0 0.0 0.00 0.00 0.00 51
20260906074207 71 288 0.0 0.0 0.00 0.00 0.00 52
20260906073702 71 159 0.0 0.0 0.00 0.00 0.00 53
20260906073157 71 294 0.0 0.0 0.00 0.00 0.00 54
20260906072652 71 226 0.0 0.0 0.00 0.00 0.00 55
20260906072148 71 169 0.0 0.0 0.00 0.00 0.00 55
20260906071644 71 175 0.0 0.0 0.00 0.00 0.00 54
20260906071143 72 20 0.0 0.0 0.00 0.00 0.00 53
20260906070640 74 288 0.0 0.0 0.00 0.00 0.00 52
20260906070136 74 308 0.0 0.0 0.00 0.00 0.00 52
20260906065635 73 333 0.0 0.0 0.00 0.00 0.00 53
20260906065131 73 343 0.0 0.0 0.00 0.00 0.00 53
20260906064626 73 18 0.0 0.0 0.00 0.00 0.00 53
20260906064121 73 5 0.0 0.9 0.00 0.00 0.00 53
20260906063616 73 12 0.0 0.0 0.00 0.00 0.00 52
20260906063112 73 347 0.0 0.0 0.00 0.00 0.00 51
20260906062608 74 5 0.0 0.9 0.00 0.00 0.00 50
20260906062106 74 350 0.0 0.0 0.00 0.00 0.00 49
20260906061603 75 340 0.0 0.0 0.00 0.00 0.00 49
20260906061102 75 17 0.9 0.9 0.00 0.00 0.00 48
20260906060559 75 6 0.0 0.9 0.00 0.00 0.00 48
20260906060056 75 21 0.0 0.9 0.00 0.00 0.00 48
20260906055551 74 1 0.0 0.0 0.00 0.00 0.00 48
20260906055046 74 21 0.0 0.0 0.00 0.00 0.00 49
20260906054541 74 46 0.0 0.0 0.00 0.00 0.00 49
20260906054036 74 104 0.0 0.0 0.00 0.00 0.00 49
20260906053533 74 39 0.0 0.0 0.00 0.00 0.00 49
20260906053028 75 37 0.0 0.0 0.00 0.00 0.00 48
20260906052524 76 356 0.0 0.0 0.00 0.00 0.00 46
20260906052021 77 350 0.0 0.9 0.00 0.00 0.00 46
20260906051516 76 312 0.0 0.9 0.00 0.00 0.00 47
20260906051011 76 14 0.0 0.0 0.00 0.00 0.00 47
20260906050512 76 14 0.0 0.9 0.00 0.00 0.00 47
20260906050006 76 17 0.0 0.9 0.00 0.00 0.00 46
20260906045504 77 3 0.0 0.0 0.00 0.00 0.00 45
20260906045000 77 9 0.0 0.9 0.00 0.00 0.00 44
20260906044455 77 60 0.0 0.0 0.00 0.00 0.00 44
20260906043951 76 52 0.0 0.0 0.00 0.00 0.00 44
20260906043447 76 53 0.0 0.0 0.00 0.00 0.00 43
20260906042943 76 83 0.0 0.0 0.00 0.00 0.00 42
20260906042441 76 72 0.0 0.0 0.00 0.00 0.00 42
20260906041936 76 83 0.0 0.0 0.00 0.00 0.00 42
20260906041433 76 93 0.0 0.0 0.00 0.00 0.00 42
20260906040932 77 44 0.0 0.0 0.00 0.00 0.00 41
20260906040427 77 358 0.0 0.0 0.00 0.00 0.00 40
20260906035922 76 15 0.0 0.0 0.00 0.00 0.00 39
20260906035418 76 44 0.0 0.0 0.00 0.00 0.00 39
20260906034913 76 352 0.0 0.0 0.00 0.00 0.00 39
20260906034413 76 20 0.0 0.0 0.00 0.00 0.00 39
20260906033909 77 32 0.0 0.0 0.00 0.00 0.00 39
20260906033409 77 70 0.0 0.0 0.00 0.00 0.00 39
20260906032904 77 342 0.0 0.0 0.00 0.00 0.00 40
20260906032401 77 209 0.0 0.0 0.00 0.00 0.00 40
20260906031855 78 51 0.0 0.0 0.00 0.00 0.00 39
20260906031350 78 347 0.0 0.0 0.00 0.00 0.00 38
20260906030845 79 111 0.0 0.0 0.00 0.00 0.00 37
20260906030341 77 160 0.0 0.0 0.00 0.00 0.00 39
20260906025835 77 27 0.0 0.0 0.00 0.00 0.00 39
20260906025329 77 36 0.0 0.0 0.00 0.00 0.00 39
20260906024828 77 31 0.0 0.0 0.00 0.00 0.00 39
20260906024327 77 21 0.0 0.0 0.00 0.00 0.00 39
20260906023823 77 56 0.0 0.0 0.00 0.00 0.00 38
20260906023318 77 355 0.0 0.0 0.00 0.00 0.00 38
20260906022814 75 353 0.0 0.0 0.00 0.00 0.00 39
20260906022309 76 76 0.0 0.0 0.00 0.00 0.00 39
20260906021805 77 49 0.0 0.0 0.00 0.00 0.00 39
20260906021304 77 332 0.0 0.0 0.00 0.00 0.00 38
20260906020758 78 338 0.0 0.0 0.00 0.00 0.00 37
20260906020253 78 13 0.0 0.0 0.00 0.00 0.00 37
20260906015753 79 32 0.0 0.0 0.00 0.00 0.00 37
20260906015251 80 346 0.0 0.0 0.00 0.00 0.00 36
20260906014746 80 348 0.0 0.0 0.00 0.00 0.00 36
20260906014242 80 354 0.0 0.0 0.00 0.00 0.00 36
20260906013738 80 352 0.0 0.0 0.00 0.00 0.00 36
20260906013237 81 356 0.0 0.0 0.00 0.00 0.00 35
20260906012733 81 46 0.0 0.0 0.00 0.00 0.00 35
20260906012227 83 304 0.0 0.0 0.00 0.00 0.00 33
20260906011723 83 344 0.0 0.0 0.00 0.00 0.00 33
20260906011217 83 320 0.0 0.0 0.00 0.00 0.00 33
20260906010713 83 340 0.0 0.0 0.00 0.00 0.00 33
20260906010209 84 344 0.0 0.9 0.00 0.00 0.00 32
20260906005708 84 352 0.0 0.0 0.00 0.00 0.00 32
20260906005203 85 354 0.0 0.0 0.00 0.00 0.00 32
20260906004701 85 354 0.0 0.0 0.00 0.00 0.00 31
20260906004156 86 342 0.9 0.9 0.00 0.00 0.00 31
20260906003652 87 39 0.0 0.9 0.00 0.00 0.00 31
20260906003147 87 9 0.0 0.9 0.00 0.00 0.00 30
20260906002642 87 5 0.0 0.9 0.00 0.00 0.00 30
20260906002137 88 346 0.0 0.9 0.00 0.00 0.00 30
20260906001632 89 350 0.0 1.7 0.00 0.00 0.00 30
20260906001132 90 337 0.0 0.0 0.00 0.00 0.00 27
20260906000628 90 67 0.0 1.7 0.00 0.00 0.00 26
20260906000123 88 348 0.0 0.9 0.00 0.00 0.00 28
20260905235621 88 343 0.0 0.9 0.00 0.00 0.00 31
20260905235117 87 348 0.9 0.9 0.00 0.00 0.00 30
20260905234612 88 5 0.0 0.9 0.00 0.00 0.00 30
20260905234108 88 347 0.0 0.9 0.00 0.00 0.00 31
20260905233602 88 345 0.9 1.7 0.00 0.00 0.00 29
20260905233056 88 335 0.9 1.7 0.00 0.00 0.00 29
20260905232552 86 5 0.0 0.9 0.00 0.00 0.00 32
20260905232048 86 341 0.9 1.7 0.00 0.00 0.00 32
20260905231542 88 335 1.7 1.7 0.00 0.00 0.00 29
20260905231039 92 268 0.0 0.9 0.00 0.00 0.00 26
20260905230538 92 334 0.0 0.9 0.00 0.00 0.00 25
20260905230037 90 38 0.0 0.9 0.00 0.00 0.00 25
20260905225531 91 14 0.0 0.9 0.00 0.00 0.00 25
20260905225026 91 99 0.0 0.9 0.00 0.00 0.00 25
20260905224521 91 128 0.0 0.9 0.00 0.00 0.00 24
20260905224020 91 92 0.0 0.9 0.00 0.00 0.00 25
20260905223518 91 93 0.0 0.0 0.00 0.00 0.00 25
20260905223013 91 121 0.0 0.9 0.00 0.00 0.00 25
20260905222508 92 116 0.0 0.9 0.00 0.00 0.00 25
20260905222003 92 106 0.0 0.9 0.00 0.00 0.00 24
20260905221500 93 117 0.0 0.0 0.00 0.00 0.00 23
20260905220955 93 356 0.0 0.0 0.00 0.00 0.00 23
20260905220451 93 86 0.0 0.0 0.00 0.00 0.00 24
20260905215950 93 354 0.0 0.9 0.00 0.00 0.00 24
20260905215446 94 78 0.0 0.9 0.00 0.00 0.00 23